Regional Weather Roundup
Issued by NWS

Home | Current Version | Previous Version | Text Only | Print | Product List | Glossary Off
Versions: 1 2 3 4 5 6 7 8 9 10 11 12 13 14 15 16 17 18 19 20 21 22 23 24 25 26 27 28 29 30 31 32 33 34 35 36 37 38 39 40 41 42 43 44 45 46 47 48 49 50

678
ASUS44 KJAN 262303
RWRMS

MISSISSIPPI HOURLY WEATHER ROUNDUP
NATIONAL WEATHER SERVICE JACKSON MS
600 PM CDT THU MAR 26 2015

NOTE: "FAIR: INDICATES FEW OR NO CLOUDS BELOW 12,000 FEET WITH NO
SIGNIFICANT WEATHER AND/OR OBSTRUCTIONS TO VISIBILITY.

MSZ001>002-007>008-010>013-018>021-025>028-034>036-270000-
NORTHWEST MISSISSIPPI

CITY           SKY/WX    TMP DP  RH WIND       PRES   REMARKS
CLARKSDALE     CLOUDY    48  46  93 N20G28    29.98F
CLEVELAND      CLOUDY    50  46  86 N20G29    29.97R
GREENWOOD      CLOUDY    53  44  71 N15       29.92S
GREENVILLE     CLOUDY    52  45  77 N22G28    29.95R
OLIVE BRANCH   RAIN      45  45 100 N9        30.00R FOG
OXFORD         CLOUDY    45  43  93 N9G16     29.98R
TUNICA         LGT RAIN  46  45  93 N13       30.00S
$$

MSZ003>006-009-014>017-022>024-029>033-037>039-270000-
NORTHEAST MISSISSIPPI

CITY           SKY/WX    TMP DP  RH WIND       PRES   REMARKS
COLUMBUS AFB   CLOUDY    59  52  77 N16G23    29.84R
CORINTH        HVY RAIN  46  43  87 N9        29.95R
GOLDN TRIANGLE LGT RAIN  59  52  77 N18G28    29.85R
STARKVILLE     CLOUDY    59  52  77 N6        29.87R
TUPELO         CLOUDY    50  44  80 N18G25    29.92R
$$

MSZ040-058-270000-
CENTRAL MISSISSIPPI

CITY           SKY/WX    TMP DP  RH WIND       PRES   REMARKS
JACKSON INTL   CLOUDY    58  55  90 N12G23    29.87R
JACKSON HAWKNS CLOUDY    56  52  86 N9G20     29.88R
MERIDIAN KEY   CLOUDY    72  59  63 W5        29.80R
MERIDIAN NAS   CLOUDY    74  57  55 W7        29.78S
RAYMOND        CLOUDY    55  50  82 NW12      29.89R
VICKSBURG      LGT RAIN  54  49  83 N14G28    29.93R
$$

MSZ059>079-270000-
SOUTH MISSISSIPPI

CITY           SKY/WX    TMP DP  RH WIND       PRES   REMARKS
BROOKHAVEN       N/A     66  66 100 NW5       29.85R
HATTIESBURG    LGT RAIN  67  66  97 SE9       29.80F
MCCOMB         CLOUDY    67  65  93 W3        29.83S
NATCHEZ        CLOUDY    57  52  82 N18G28    29.90R
PINE BELT      CLOUDY    64  57  77 CALM      29.81S
$$

MSZ080>082-270000-
COASTAL MISSISSIPPI

CITY           SKY/WX    TMP DP  RH WIND       PRES   REMARKS
BAY ST LOUIS   MOSUNNY   64  59  82 CALM      29.83F
BILOXI         CLOUDY    67  63  88 W3        29.82F
PASCAGOULA     CLOUDY    67  65  93 SW5       29.84R
GULFPORT       CLOUDY    66  62  87 W3        29.82F
$$



USA.gov is the U.S. government's official web portal to all federal, state and local government web resources and services.